Location: Bermeries
(50.2863°N, 3.7551°E)
Time: 14:47:08
(UTC+00:00)

Cosmos 1441 Rocket - Pass Details

Date: 23 May 2024
Orbit: 467 x 502 km, 81.1° (Epoch: 18 June)

Event Time Altitude Azimuth Distance (km) Brightness Sun altitude
Rises 00:22:02 0° 340° (NNW) 2,531 7.7 -18.5°
Reaches altitude 10° 00:24:15 10° 331° (NNW) 1,643 6.5 -18.5°
Maximum altitude 00:27:30 34° 266° (W) 800 4.0 -18.4°
Enters shadow 00:27:51 33° 252° (WSW) 813 3.9 -18.3°
